Location: Cincinnati Observatory Center
(39.1389°N, 84.4225°W)
Time: 23:40:29
(UTC-04:00)

Hubble Space Telescope - Visible Passes

Search period start: 25 June 2017 00:00
Search period end: 05 July 2017 00:00
Orbit: 538 x 541 km, 28.5° (Epoch: 25 June)

Date Brightness Start Highest point End Pass type
(mag) Time Alt. Az. Time Alt. Az. Time Alt. Az.
02 Jul 3.0 04:37:39 12° SSE 04:37:40 12° SSE 04:39:10 10° SE visible
03 Jul 2.9 04:28:00 13° SSE 04:28:00 13° SSE 04:29:30 10° SE visible
04 Jul 2.9 04:18:23 14° SSE 04:18:23 14° SSE 04:19:38 10° SE visible
